Wind_Speed
29 33 33 33 36 37 37 38 36 34 27 19 25 31 32 24 29 30 31 23 28 33 32 34 30 22 18 22 23 33 38 31 29 30 30 31 28 28 31 32 31 28 29 31
22 27 26 30 31 34 37 38 37 31 27 21 22 30 38 31 31 31 34 31 33 36 36 38 34 27 22 28 30 30 33 35 33 34 35 35 36 36 36 36 36 34 33 35
18 19 20 25 28 31 33 36 37 36 40 35 31 29 31 40 27 33 32 36 36 39 41 40 38 29 27 30 31 33 32 33 35 35 34 35 37 38 37 39 39 37 35 37
20 21 20 21 25 26 33 30 33 34 39 47 39 44 38 39 31 30 38 39 43 45 43 44 41 36 32 30 30 32 34 34 35 36 37 37 37 36 36 39 38 37 36 36
23 26 26 29 24 26 34 30 29 34 30 34 47 48 50 30 18 19 30 35 43 44 46 49 47 41 36 27 33 34 35 36 38 39 39 41 42 40 41 40 40 40 35 37
32 30 27 30 30 29 29 32 34 36 39 40 42 38 42 33 24 15 36 43 43 43 45 50 49 46 41 32 38 39 35 36 39 39 41 42 43 44 44 44 44 42 41 40
35 37 34 36 39 31 33 37 40 44 33 45 39 30 30 36 35 30 33 46 51 53 52 54 50 48 39 38 39 42 42 39 40 40 41 43 45 45 45 46 47 47 45 43
41 40 31 30 42 40 35 41 34 47 43 41 37 32 39 34 33 38 40 47 53 56 62 58 56 50 39 39 40 42 42 42 44 44 44 44 45 45 45 46 47 48 49 46
44 44 36 30 36 43 42 46 43 39 41 45 40 43 39 42 30 48 53 53 53 53 58 54 56 50 49 46 44 40 39 40 45 48 48 47 47 46 46 46 47 48 49 48
43 49 33 27 38 41 44 45 41 29 37 38 39 45 41 34 41 36 44 53 56 56 56 45 53 58 60 51 46 46 46 46 46 48 50 50 50 49 48 48 49 50 50 49
44 41 31 23 25 30 29 30 30 38 31 34 37 39 50 40 40 47 50 52 53 68 68 48 46 60 58 57 54 53 55 51 51 53 52 52 52 52 52 52 51 52 51 52
37 36 31 22 18 32 35 21 21 32 30 39 28 34 39 41 44 43 59 36 39 31 26 36 48 51 63 57 59 55 56 58 53 50 54 54 54 54 54 55 54 53 52 52
31 31 29 23 22 28 42 39 37 37 27 27 28 33 38 41 47 52 50 52 56 46 51 33 32 31 35 33 34 33 37 44 44 47 52 53 54 53 54 56 57 57 55 55
27 26 28 26 23 24 28 29 39 39 37 29 28 39 38 43 41 48 45 43 39 43 46 46 40 45 48 48 45 45 42 42 45 46 46 46 48 52 55 57 59 61 61 60
30 24 25 25 25 25 27 28 19 21 29 34 37 35 31 42 46 47 53 59 62 56 52 58 57 51 48 48 53 54 54 52 52 52 52 54 54 53 57 56 54 56 58 59
32 27 25 22 24 26 29 29 28 24 28 27 24 29 30 38 41 46 50 52 56 59 57 52 47 42 45 46 49 51 53 53 51 53 53 54 57 60 62 65 65 62 62 62
29 27 25 20 23 25 25 25 24 30 32 33 30 35 36 39 42 43 43 43 44 47 51 52 51 52 41 30 33 34 35 34 36 38 42 46 47 50 54 57 60 62 62 67
27 26 24 22 22 23 18 21 25 25 27 29 29 24 28 35 40 43 45 46 47 45 46 47 43 34 32 32 34 32 35 37 37 39 41 43 44 44 45 46 49 51 49 51
21 22 20 19 19 19 17 24 28 25 23 26 28 31 37 41 42 41 36 33 35 34 27 26 29 32 33 35 36 36 37 38 38 38 39 40 40 41 43 44 45 46 45 45
24 19 17 17 19 19 21 24 22 23 27 26 26 24 24 26 30 29 24 24 28 28 29 32 35 37 39 38 36 34 35 37 38 39 41 43 45 46 46 46 44 42 42 42
23 22 18 19 22 19 24 25 25 22 20 21 26 25 20 21 20 23 25 25 28 32 36 38 40 39 40 38 38 39 40 42 44 46 49 51 51 52 53 54 55 53 50 47
21 22 21 21 21 21 22 28 28 25 23 24 25 25 23 24 25 27 29 33 35 37 39 39 40 39 38 41 43 45 47 48 49 50 51 53 52 52 52 52 54 57 58 55
24 19 20 21 16 15 14 18 21 22 23 24 23 22 26 29 30 32 35 38 37 37 37 37 40 41 44 47 49 50 50 51 52 50 49 47 45 43 43 41 40 41 43 47
25 24 20 21 25 22 21 19 20 16 24 20 24 27 28 29 31 33 33 35 38 39 42 43 45 46 47 48 50 50 50 48 46 43 43 41 37 35 35 35 36 37 38 39
26 25 26 28 25 28 27 25 30 26 27 28 28 29 30 32 33 34 36 39 41 42 43 44 44 44 44 44 43 42 43 43 40 39 37 36 35 34 33 34 35 36 37 39
28 29 27 27 26 34 29 30 34 31 28 27 28 29 31 34 35 37 38 38 40 40 41 41 38 37 36 36 36 39 40 40 38 37 36 35 34 33 33 34 35 36 35 35
Wind_Direction
266 263 263 262 260 257 254 252 254 257 244 236 256 263 256 252 257 257 260 256 253 257 261 264 258 257 255 263 260 248 247 256 249 242 248 253 248 251 258 262 265 270 274 278
281 276 270 265 261 260 256 252 249 248 213 219 220 245 251 244 249 250 256 255 253 258 259 262 268 269 263 248 248 247 247 250 252 246 244 245 249 252 255 261 268 272 278 278
314 303 286 276 264 260 257 258 251 243 211 206 217 225 251 254 246 250 245 257 257 251 255 263 267 269 260 263 261 261 260 255 253 253 252 253 251 250 256 257 262 267 267 267
327 309 305 290 281 262 265 262 256 246 238 221 218 232 231 253 252 249 242 246 255 260 262 263 262 261 263 263 262 256 255 254 256 261 259 256 257 258 258 257 256 261 264 266
319 306 298 294 294 268 274 268 258 243 249 251 235 237 238 250 238 259 257 249 251 262 263 263 264 263 261 265 262 256 253 255 254 255 257 258 258 256 258 261 259 257 258 262
312 311 310 293 280 276 265 247 258 255 242 245 248 236 235 239 217 256 252 258 261 261 257 261 263 263 259 259 259 258 253 253 256 255 255 256 258 260 260 259 261 260 261 263
317 318 303 294 275 250 235 244 249 251 228 249 256 239 253 243 222 215 245 249 257 259 261 260 262 263 264 256 257 257 256 255 254 252 252 254 256 255 257 261 262 263 261 261
321 314 297 274 263 258 234 242 239 249 242 241 241 231 234 244 223 217 227 233 245 249 253 260 260 259 250 248 249 253 256 258 257 256 254 252 253 255 256 259 260 263 264 263
317 311 305 284 265 259 255 240 225 220 234 249 249 227 228 230 236 222 223 226 229 239 250 260 261 252 252 250 249 253 256 261 262 261 260 258 256 253 254 255 257 260 263 266
317 313 312 287 262 268 262 265 240 232 230 235 227 234 221 229 224 208 217 231 237 238 236 246 234 250 260 258 257 260 258 257 260 260 259 258 258 259 256 254 254 255 258 259
319 310 308 282 281 270 259 250 245 246 236 250 235 245 234 227 226 224 227 223 235 222 235 221 236 250 260 261 266 266 267 265 264 260 258 258 257 257 258 260 260 258 256 257
313 305 305 292 267 257 258 267 251 248 240 247 250 249 248 247 245 252 225 225 221 188 209 227 236 244 254 262 262 260 266 271 269 266 262 260 259 259 258 259 259 259 260 260
315 304 301 288 268 250 250 256 245 252 232 226 235 254 259 259 259 264 267 268 269 269 261 264 277 241 244 262 279 274 272 274 274 274 267 265 265 261 262 262 262 262 261 261
313 304 299 295 279 265 256 258 253 265 255 249 243 250 255 254 265 256 270 278 275 276 276 279 279 274 263 284 288 281 278 278 280 280 278 274 272 269 264 262 265 264 262 261
313 310 293 288 280 266 268 253 272 272 262 252 250 247 250 251 255 255 258 273 277 284 287 287 292 289 279 282 285 285 283 279 277 276 275 274 272 270 273 271 267 266 266 265
311 309 299 284 274 263 256 268 265 270 270 263 254 253 263 268 271 270 266 267 272 279 290 292 294 286 280 277 277 278 280 281 280 281 279 275 273 270 268 268 266 264 265 266
305 303 294 289 275 270 264 264 258 257 270 275 265 252 259 261 266 270 274 277 278 281 285 289 291 294 297 281 275 279 279 276 276 277 276 276 273 271 271 269 266 265 262 260
303 301 296 287 276 274 255 256 262 262 260 264 265 269 262 261 265 266 268 270 276 280 282 286 288 285 281 281 280 279 279 279 278 277 276 276 275 272 271 271 270 268 266 263
295 296 295 294 279 273 267 263 262 271 268 272 267 262 263 262 262 264 274 275 274 278 280 278 276 274 276 280 281 279 280 281 279 277 276 276 275 273 271 269 269 268 267 267
308 301 291 303 284 270 259 262 263 275 265 264 270 270 277 284 272 275 275 262 259 265 272 277 278 277 278 277 277 278 279 279 278 278 278 278 277 275 274 272 268 267 266 263
305 299 301 293 286 277 248 260 265 268 270 267 269 270 270 278 271 275 268 264 268 273 276 278 278 277 275 271 274 275 278 279 279 277 277 280 278 275 272 269 269 268 265 263
303 294 286 286 289 285 264 252 256 261 269 268 265 263 268 272 272 272 281 282 282 282 282 282 281 281 280 277 279 281 282 283 283 283 282 281 279 274 271 270 268 266 263 260
299 286 279 274 282 285 277 275 263 267 272 266 268 268 266 267 273 277 278 279 281 281 281 279 279 280 280 280 281 282 283 284 283 283 281 278 275 274 272 269 269 268 266 263
296 292 269 254 270 270 268 233 263 260 264 277 277 274 272 274 276 277 277 280 282 283 284 285 283 283 283 283 282 282 282 283 283 281 279 277 274 271 271 270 269 267 267 267
291 282 275 269 254 253 250 253 254 265 269 280 276 272 275 277 279 283 285 285 285 286 286 286 287 285 285 285 285 285 284 283 280 280 279 275 273 272 270 269 268 269 269 267
283 285 284 272 256 249 260 265 263 270 279 275 273 275 278 280 283 286 287 288 288 289 289 288 288 288 289 289 289 286 284 283 284 282 279 275 273 268 271 272 271 272 273 271
Height
5831 5832 5833 5835 5835 5836 5837 5839 5841 5844 5847 5846 5848 5849 5853 5858 5856 5856 5857 5860 5856 5855 5858 5860 5865 5871 5872 5870 5872 5874 5873 5876 5878 5882 5883 5885 5889 5891 5893 5895 5898 5900 5900 5901
5825 5825 5826 5826 5826 5827 5828 5829 5832 5836 5839 5839 5841 5842 5843 5850 5851 5849 5850 5852 5849 5848 5850 5851 5856 5861 5864 5865 5863 5863 5864 5866 5870 5874 5877 5879 5880 5883 5885 5888 5890 5892 5892 5893
5820 5820 5818 5818 5818 5818 5819 5820 5823 5826 5829 5829 5832 5832 5833 5837 5845 5845 5842 5842 5841 5841 5841 5844 5848 5854 5855 5856 5858 5859 5860 5861 5863 5866 5869 5870 5872 5875 5876 5880 5882 5883 5884 5885
5816 5814 5813 5812 5811 5811 5810 5814 5815 5815 5819 5822 5825 5822 5827 5829 5837 5839 5836 5834 5831 5830 5835 5837 5841 5847 5850 5852 5852 5852 5852 5854 5856 5857 5859 5862 5864 5866 5869 5871 5875 5874 5874 5876
5812 5808 5806 5804 5806 5806 5803 5806 5807 5808 5807 5809 5816 5815 5818 5823 5827 5831 5829 5829 5827 5825 5825 5826 5829 5838 5843 5845 5842 5844 5845 5847 5848 5850 5851 5852 5854 5857 5858 5860 5863 5865 5868 5868
5802 5801 5800 5797 5796 5796 5796 5797 5797 5797 5800 5797 5803 5806 5809 5815 5820 5821 5822 5816 5817 5818 5817 5816 5820 5824 5830 5834 5832 5834 5837 5839 5839 5841 5842 5843 5845 5847 5849 5851 5852 5855 5856 5858
5795 5792 5787 5783 5780 5781 5784 5785 5784 5785 5786 5785 5796 5798 5803 5800 5809 5811 5809 5806 5805 5806 5805 5806 5811 5813 5820 5822 5822 5822 5825 5828 5828 5831 5833 5834 5835 5837 5839 5841 5842 5843 5847 5850
5781 5781 5779 5779 5772 5770 5774 5774 5772 5770 5775 5778 5783 5784 5787 5790 5795 5798 5794 5791 5792 5790 5789 5793 5797 5803 5808 5808 5811 5813 5813 5815 5818 5820 5822 5824 5826 5827 5830 5831 5833 5833 5833 5838
5771 5767 5767 5765 5761 5760 5765 5760 5759 5755 5760 5765 5773 5774 5778 5780 5783 5783 5776 5776 5775 5779 5779 5781 5785 5789 5792 5798 5801 5803 5805 5806 5807 5808 5811 5813 5815 5817 5818 5820 5822 5823 5824 5826
5762 5752 5757 5752 5747 5749 5747 5748 5744 5743 5748 5751 5760 5761 5767 5769 5773 5767 5767 5769 5768 5765 5765 5773 5760 5768 5774 5782 5789 5791 5792 5794 5795 5796 5797 5800 5802 5804 5806 5808 5810 5812 5813 5815
5752 5745 5745 5742 5741 5738 5738 5739 5737 5737 5739 5745 5751 5749 5756 5759 5756 5759 5762 5753 5760 5753 5752 5756 5748 5755 5762 5770 5776 5775 5776 5782 5784 5785 5785 5786 5788 5790 5792 5795 5798 5800 5802 5804
5742 5736 5734 5736 5736 5727 5726 5724 5732 5733 5738 5740 5740 5742 5744 5745 5745 5745 5742 5749 5751 5743 5744 5743 5738 5746 5750 5759 5760 5766 5766 5767 5770 5771 5772 5775 5776 5777 5779 5780 5783 5786 5789 5792
5734 5728 5726 5727 5727 5725 5720 5724 5727 5724 5725 5726 5730 5733 5733 5734 5731 5729 5733 5730 5731 5735 5735 5738 5737 5740 5742 5751 5752 5753 5756 5755 5755 5757 5761 5761 5762 5765 5766 5767 5769 5770 5773 5775
5727 5722 5718 5717 5717 5715 5715 5716 5717 5719 5719 5720 5725 5725 5725 5726 5724 5723 5720 5719 5721 5722 5723 5727 5736 5740 5739 5739 5740 5741 5744 5746 5745 5745 5747 5749 5749 5749 5753 5755 5754 5755 5758 5760
5719 5717 5712 5710 5709 5709 5707 5710 5712 5713 5714 5714 5718 5715 5714 5717 5720 5721 5719 5715 5711 5710 5714 5720 5724 5727 5728 5727 5727 5729 5730 5733 5734 5733 5733 5733 5736 5736 5735 5738 5742 5741 5741 5743
5710 5708 5705 5705 5702 5702 5701 5702 5705 5703 5707 5709 5709 5710 5707 5710 5712 5713 5714 5712 5709 5705 5705 5709 5711 5712 5714 5717 5715 5715 5715 5715 5716 5717 5718 5717 5718 5719 5719 5719 5722 5725 5725 5725
5704 5701 5698 5698 5696 5695 5698 5698 5698 5699 5700 5700 5703 5699 5706 5705 5704 5704 5704 5704 5704 5702 5700 5698 5696 5696 5699 5699 5698 5700 5700 5700 5700 5700 5700 5701 5702 5702 5701 5700 5703 5704 5706 5707
5698 5695 5692 5691 5690 5691 5692 5691 5691 5693 5692 5693 5693 5694 5695 5695 5697 5697 5698 5698 5696 5696 5695 5693 5690 5689 5689 5688 5687 5688 5687 5686 5687 5687 5686 5685 5685 5687 5687 5687 5686 5688 5686 5690
5694 5689 5687 5685 5684 5686 5686 5685 5685 5686 5686 5685 5685 5685 5683 5684 5686 5688 5691 5690 5689 5688 5688 5687 5686 5684 5683 5681 5679 5678 5677 5676 5675 5675 5675 5674 5673 5674 5673 5673 5672 5672 5674 5674
5686 5684 5683 5680 5678 5679 5679 5678 5680 5681 5680 5678 5678 5679 5680 5680 5680 5680 5683 5682 5681 5680 5680 5679 5678 5677 5675 5673 5671 5670 5669 5667 5666 5665 5664 5662 5661 5660 5659 5658 5658 5658 5659 5659
5680 5677 5677 5676 5674 5674 5674 5673 5674 5674 5677 5674 5673 5674 5675 5675 5677 5675 5673 5674 5674 5674 5671 5670 5668 5667 5664 5662 5661 5660 5658 5655 5653 5651 5649 5646 5645 5644 5644 5643 5642 5642 5643 5644
5676 5673 5671 5670 5668 5667 5667 5667 5669 5670 5668 5669 5668 5668 5670 5670 5669 5668 5667 5665 5663 5661 5659 5658 5656 5654 5652 5650 5648 5646 5644 5640 5638 5635 5633 5630 5628 5626 5625 5625 5624 5623 5624 5626
5669 5668 5666 5665 5665 5664 5664 5662 5663 5663 5663 5662 5664 5665 5663 5662 5661 5660 5658 5655 5654 5652 5650 5648 5645 5643 5640 5637 5635 5632 5629 5626 5622 5619 5617 5614 5612 5611 5610 5609 5608 5607 5607 5608
5662 5660 5659 5659 5658 5658 5658 5659 5658 5658 5656 5658 5658 5656 5655 5654 5653 5651 5649 5647 5644 5642 5638 5636 5633 5630 5627 5623 5620 5616 5614 5610 5607 5604 5602 5600 5600 5598 5597 5596 5596 5596 5596 5596
5656 5653 5651 5650 5651 5649 5650 5652 5651 5650 5651 5652 5650 5648 5647 5645 5643 5641 5639 5636 5633 5630 5626 5623 5619 5616 5612 5609 5605 5602 5599 5595 5594 5592 5590 5589 5588 5587 5586 5584 5583 5583 5582 5583
5647 5644 5644 5642 5643 5643 5643 5643 5644 5644 5645 5643 5641 5641 5639 5636 5634 5632 5629 5626 5622 5618 5614 5610 5606 5603 5600 5596 5593 5589 5586 5583 5582 5581 5579 5577 5576 5575 5574 5572 5571 5569 5569 5569